GW1062 Weather Reports


Display with metric or nautical units.
time (UTC)temp
F
wind
direction
speed
MPH
gust
MPH
rain 1hr
in
rain 24hr
in
rain mn
in
humidity
%
barometer
mb
20260901070029 74 5 0.0 0.0 0.00 0.00 0.00 96 975.9
20260901064526 74 5 0.0 1.0 0.00 0.00 0.00 96 976.1
20260901063023 75 5 0.0 0.0 0.00 0.00 0.00 96 976.2
20260901061522 75 5 0.0 0.0 0.00 0.00 0.00 96 976.1
20260901060021 75 5 0.0 0.0 0.00 0.00 0.00 96 976.0
20260901054520 75 5 0.0 0.0 0.00 0.00 0.00 96 975.9
20260901053022 75 5 0.0 0.0 0.00 0.00 0.00 96 975.9
20260901051515 76 5 0.0 0.0 0.00 0.00 0.00 95 975.7
20260901050013 76 6 0.0 0.0 0.00 0.00 0.00 95 975.5
20260901044512 76 5 0.0 0.0 0.00 0.00 0.00 95 975.6
20260901043010 77 5 0.0 0.0 0.00 0.00 0.00 95 975.4
20260901041509 77 5 0.0 0.0 0.00 0.00 0.00 95 975.3
20260901040009 77 5 0.0 0.0 0.00 0.00 0.00 96 975.2
20260901034511 77 5 0.0 0.0 0.00 0.00 0.00 96 975.1
20260901033006 77 5 0.0 0.0 0.00 0.00 0.00 96 975.1
20260901031511 77 5 0.0 0.0 0.00 0.00 0.00 96 975.0
20260901030106 77 5 0.0 0.0 0.00 0.00 0.00 95 975.1
20260901024505 78 5 0.0 0.0 0.00 0.00 0.00 94 975.0
20260901023003 79 5 0.0 0.0 0.00 0.00 0.00 94 974.9
20260901021504 80 5 0.0 0.0 0.00 0.00 0.00 92 974.8
20260901020002 80 5 0.0 0.0 0.00 0.00 0.00 91 974.8
20260901014501 81 5 0.0 1.0 0.00 0.00 0.00 91 974.6
20260901013100 81 6 0.0 3.0 0.00 0.00 0.00 91 974.7
20260901011602 82 5 0.0 1.0 0.00 0.00 0.00 91 974.5
20260901004556 83 5 0.0 0.0 0.00 0.00 0.00 89 974.4
20260901003100 83 5 0.0 1.0 0.00 0.00 0.00 88 974.1
20260901001558 84 6 0.0 2.0 0.00 0.00 0.00 87 974.2
20260901000054 85 6 0.0 1.0 0.00 0.00 0.00 86 974.0
20260831234557 85 6 0.0 4.0 0.00 0.00 0.00 86 974.0
20260831233053 86 6 0.0 2.0 0.00 0.00 0.00 84 974.1
20260831231554 87 4 1.0 4.0 0.00 0.00 0.00 82 974.0
20260831230058 86 4 0.0 3.0 0.00 0.00 0.00 83 974.0
20260831224551 87 4 2.0 5.0 0.00 0.00 0.00 81 973.9
20260831223051 86 4 2.0 6.0 0.00 0.00 0.00 84 973.9
20260831221550 86 4 3.0 7.0 0.00 0.00 0.00 82 973.9
20260831220057 87 4 1.0 6.0 0.00 0.00 0.00 83 973.9
20260831214549 87 4 2.0 6.0 0.00 0.00 0.00 82 973.8
20260831213049 87 4 1.0 5.0 0.00 0.00 0.00 80 973.8
20260831211548 89 4 3.0 11.0 0.00 0.00 0.00 77 973.7
20260831210047 89 5 5.0 9.0 0.00 0.00 0.00 74 973.8
20260831204556 89 4 3.0 9.0 0.00 0.00 0.00 76 973.8
20260831203057 89 1 2.0 9.0 0.00 0.00 0.00 76 973.8
20260831201543 88 4 4.0 9.0 0.00 0.00 0.00 77 973.8
20260831200049 88 6 4.0 10.0 0.00 0.00 0.00 76 973.8
20260831194542 87 4 4.0 10.0 0.00 0.00 0.00 78 973.8
20260831193108 87 108 4.0 9.0 0.00 0.00 0.00 77 973.7
20260831191535 86 107 5.0 10.0 0.00 0.00 0.00 79 973.8
20260831190050 84 54 5.0 7.0 0.00 0.00 0.00 84 973.6
20260831184533 84 19 4.0 8.0 0.00 0.01 0.00 84 973.2
20260831183031 85 360 2.0 9.0 0.00 0.01 0.00 84 973.0
20260831181537 83 10 5.0 8.0 0.00 0.01 0.00 84 972.9
20260831180034 85 1 0.0 2.0 0.00 0.01 0.00 78 973.7
20260831174528 85 4 0.0 2.0 0.00 0.11 0.00 75 973.9
20260831173028 85 4 0.0 5.0 0.00 0.11 0.00 75 974.0
20260831171524 84 4 1.0 5.0 0.00 0.11 0.00 79 974.0
20260831170032 83 4 4.0 6.0 0.00 0.11 0.00 78 973.9
20260831164518 83 4 3.0 6.0 0.00 0.13 0.00 79 974.0
20260831163016 82 4 2.0 6.0 0.00 0.13 0.00 78 973.8
20260831161513 81 4 1.0 6.0 0.00 0.13 0.00 80 974.0
20260831160018 80 105 4.0 10.0 0.00 0.13 0.00 80 974.2
20260831154510 79 166 5.0 8.0 0.00 0.13 0.00 81 974.1
20260831153132 78 4 2.0 5.0 0.00 0.13 0.00 81 973.9
20260831151502 77 5 5.0 8.0 0.00 0.13 0.00 80 973.7
20260831150059 76 4 1.0 4.0 0.00 0.13 0.00 82 973.5
20260831144556 76 4 2.0 8.0 0.00 0.13 0.00 81 973.3
20260831143054 75 5 5.0 10.0 0.00 0.13 0.00 81 973.4
20260831141550 75 4 5.0 10.0 0.00 0.13 0.00 82 973.5
20260831140049 75 5 1.0 4.0 0.00 0.13 0.00 83 973.4
20260831134543 75 5 0.0 2.0 0.00 0.13 0.00 83 973.1
20260831133038 76 162 0.0 6.0 0.00 0.13 0.00 83 972.7
20260831131538 74 2 2.0 5.0 0.00 0.13 0.00 89 972.7
20260831130042 72 2 0.0 2.0 0.00 0.13 0.00 93 972.6
20260831124533 70 2 1.0 3.0 0.00 0.13 0.00 93 972.4
20260831123043 70 2 0.0 1.0 0.00 0.13 0.00 93 972.3
20260831121537 70 2 0.0 1.0 0.00 0.13 0.00 91 972.4
20260831120058 70 2 0.0 3.0 0.00 0.13 0.00 91 972.2
20260831114532 69 2 0.0 4.0 0.00 0.13 0.00 92 972.0
20260831113026 69 2 0.0 2.0 0.00 0.13 0.00 91 972.1
20260831111525 70 2 1.0 4.0 0.00 0.13 0.00 90 972.0
20260831110024 70 2 1.0 3.0 0.00 0.13 0.00 91 971.7
20260831104535 70 2 0.0 4.0 0.00 0.13 0.00 90 971.8
20260831103021 71 2 0.0 2.0 0.00 0.13 0.00 89 971.6
20260831101524 72 2 0.0 4.0 0.00 0.13 0.00 88 971.6
20260831100026 73 2 0.0 4.0 0.00 0.13 0.00 87 971.5
20260831094520 73 7 0.0 5.0 0.00 0.13 0.00 86 971.6
20260831093020 73 10 0.0 2.0 0.00 0.13 0.00 85 971.6
20260831091522 74 5 0.0 4.0 0.00 0.13 0.00 85 971.6
20260831090018 74 2 3.0 5.0 0.00 0.13 0.00 86 971.5
20260831084516 74 2 1.0 6.0 0.00 0.13 0.00 86 971.5
20260831083015 74 2 0.0 5.0 0.00 0.13 0.00 85 971.5
20260831081525 74 4 1.0 6.0 0.00 0.13 0.00 86 971.2
20260831080010 74 2 2.0 5.0 0.00 0.13 0.00 87 971.1
20260831074506 73 2 2.0 5.0 0.00 0.13 0.00 90 971.2
20260831073003 71 2 2.0 5.0 0.00 0.13 0.00 94 971.3
20260831071502 71 1 1.0 4.0 0.00 0.13 0.00 95 971.5